Time,TemperatureF,DewpointF,PressureIn,WindDirection,WindDirectionDegrees,WindSpeedMPH,WindSpeedGustMPH,Humidity,HourlyPrecipIn,Conditions,Clouds,dailyrainin,SoftwareType,DateUTC
2013-06-23 00:01:00,61.0,22.0,29.54,NNW,340,0.0,2.0,22,0.00,,,0.00,,2013-06-23 04:01:00,
2013-06-23 00:11:00,61.0,22.0,29.54,NNW,340,0.0,2.0,22,0.00,,,0.00,,2013-06-23 04:11:00,
2013-06-23 00:21:00,61.0,22.0,29.54,NNW,340,0.0,2.0,22,0.00,,,0.00,,2013-06-23 04:21:00,
2013-06-23 00:31:00,61.0,22.0,29.54,NNW,340,0.0,2.0,22,0.00,,,0.00,,2013-06-23 04:31:00,
2013-06-23 00:42:00,61.0,22.0,29.54,NNW,340,0.0,2.0,22,0.00,,,0.00,,2013-06-23 04:42:00,
2013-06-23 01:01:00,60.0,22.0,29.55,NNW,341,0.0,5.0,23,0.00,,,0.00,,2013-06-23 05:01:00,
2013-06-23 01:11:00,60.0,22.0,29.55,NNW,341,0.0,5.0,23,0.00,,,0.00,,2013-06-23 05:11:00,
2013-06-23 01:22:00,60.0,22.0,29.55,NNW,341,0.0,5.0,23,0.00,,,0.00,,2013-06-23 05:22:00,
2013-06-23 01:32:00,53.0,23.0,29.59,NNE,25,1.0,3.0,31,0.00,,,0.00,,2013-06-23 05:32:00,
2013-06-23 01:41:00,51.0,24.0,29.58,NNE,18,2.0,3.0,35,0.00,,,0.00,,2013-06-23 05:41:00,
2013-06-23 02:02:00,50.0,23.0,29.60,NNE,18,0.0,2.0,34,0.00,,,0.00,,2013-06-23 06:02:00,
2013-06-23 02:12:00,50.0,23.0,29.60,WNW,297,1.0,3.0,34,0.00,,,0.00,,2013-06-23 06:12:00,
2013-06-23 02:22:00,49.0,24.0,29.60,WNW,297,1.0,3.0,37,0.00,,,0.00,,2013-06-23 06:22:00,
2013-06-23 08:53:00,41.0,26.0,29.75,NNW,343,0.0,1.0,54,0.00,,,0.00,,2013-06-23 12:53:00,
2013-06-23 09:01:00,43.0,27.0,29.75,NNW,343,2.0,3.0,53,0.00,,,0.00,,2013-06-23 13:01:00,
2013-06-23 09:11:00,45.0,25.0,29.74,NNW,343,0.0,3.0,45,0.00,,,0.00,,2013-06-23 13:11:00,
2013-06-23 09:23:00,47.0,28.0,29.72,West,264,1.0,5.0,47,0.00,,,0.00,,2013-06-23 13:23:00,
2013-06-23 09:34:00,48.0,27.0,29.72,West,264,0.0,1.0,44,0.00,,,0.00,,2013-06-23 13:34:00,
2013-06-23 09:43:00,50.0,30.0,29.73,NW,313,0.0,2.0,46,0.00,,,0.00,,2013-06-23 13:43:00,
2013-06-23 09:53:00,51.0,32.0,29.71,NE,35,2.0,3.0,48,0.00,,,0.00,,2013-06-23 13:53:00,
2013-06-23 10:04:00,53.0,30.0,29.71,NE,35,1.0,5.0,41,0.00,,,0.00,,2013-06-23 14:04:00,
2013-06-23 10:11:00,56.0,31.0,29.70,NE,38,1.0,3.0,39,0.00,,,0.00,,2013-06-23 14:11:00,
2013-06-23 10:22:00,59.0,33.0,29.66,ESE,104,1.0,3.0,37,0.00,,,0.00,,2013-06-23 14:22:00,
2013-06-23 10:34:00,61.0,34.0,29.66,East,101,3.0,7.0,36,0.00,,,0.00,,2013-06-23 14:34:00,
2013-06-23 10:44:00,62.0,37.0,29.66,East,88,1.0,6.0,40,0.00,,,0.00,,2013-06-23 14:44:00,
2013-06-23 10:52:00,62.0,35.0,29.65,SE,125,1.0,5.0,37,0.00,,,0.00,,2013-06-23 14:52:00,
2013-06-23 11:05:00,63.0,37.0,29.65,SE,141,4.0,8.0,38,0.00,,,0.00,,2013-06-23 15:05:00,
2013-06-23 11:11:00,62.0,37.0,29.64,SE,128,2.0,7.0,39,0.00,,,0.00,,2013-06-23 15:11:00,
2013-06-23 11:22:00,63.0,38.0,29.64,SE,128,1.0,5.0,40,0.00,,,0.00,,2013-06-23 15:22:00,
2013-06-23 11:35:00,63.0,39.0,29.65,ESE,123,3.0,7.0,41,0.00,,,0.00,,2013-06-23 15:35:00,
2013-06-23 11:43:00,64.0,40.0,29.69,ESE,122,3.0,7.0,41,0.00,,,0.00,,2013-06-23 15:43:00,
2013-06-23 11:52:00,64.0,40.0,29.66,SSE,159,2.0,8.0,41,0.00,,,0.00,,2013-06-23 15:52:00,
2013-06-23 12:06:00,65.0,42.0,29.65,ENE,67,2.0,8.0,43,0.00,,,0.00,,2013-06-23 16:06:00,
2013-06-23 12:11:00,65.0,44.0,29.64,SE,136,2.0,13.0,47,0.00,,,0.00,,2013-06-23 16:11:00,
2013-06-23 12:22:00,64.0,43.0,29.65,ESE,107,5.0,13.0,46,0.00,,,0.00,,2013-06-23 16:22:00,
2013-06-23 12:36:00,65.0,44.0,29.66,East,88,6.0,12.0,46,0.00,,,0.00,,2013-06-23 16:36:00,
2013-06-23 12:42:00,65.0,44.0,29.67,ESE,104,3.0,12.0,47,0.00,,,0.00,,2013-06-23 16:42:00,
2013-06-23 12:53:00,65.0,44.0,29.67,NE,54,6.0,13.0,46,0.00,,,0.00,,2013-06-23 16:53:00,
2013-06-23 13:03:00,67.0,44.0,29.66,ESE,111,3.0,12.0,44,0.00,,,0.00,,2013-06-23 17:03:00,
2013-06-23 13:11:00,67.0,44.0,29.65,East,86,5.0,18.0,43,0.00,,,0.00,,2013-06-23 17:11:00,
2013-06-23 13:22:00,68.0,44.0,29.65,ESE,121,2.0,8.0,42,0.00,,,0.00,,2013-06-23 17:22:00,
2013-06-23 13:33:00,67.0,44.0,29.66,SE,128,5.0,12.0,43,0.00,,,0.00,,2013-06-23 17:33:00,
2013-06-23 13:43:00,67.0,44.0,29.67,SE,124,5.0,13.0,43,0.00,,,0.00,,2013-06-23 17:43:00,
2013-06-23 13:53:00,68.0,44.0,29.65,SE,128,8.0,14.0,42,0.00,,,0.00,,2013-06-23 17:53:00,
2013-06-23 14:01:00,68.0,43.0,29.66,SE,125,6.0,12.0,40,0.00,,,0.00,,2013-06-23 18:01:00,
2013-06-23 14:11:00,68.0,43.0,29.66,SE,128,6.0,12.0,40,0.00,,,0.00,,2013-06-23 18:11:00,
2013-06-23 14:22:00,69.0,43.0,29.65,ESE,111,6.0,12.0,39,0.00,,,0.00,,2013-06-23 18:22:00,
2013-06-23 14:34:00,69.0,43.0,29.66,SE,128,6.0,12.0,39,0.00,,,0.00,,2013-06-23 18:34:00,
2013-06-23 14:42:00,69.0,43.0,29.67,ESE,111,4.0,14.0,39,0.00,,,0.00,,2013-06-23 18:42:00,
2013-06-23 14:53:00,70.0,43.0,29.65,ESE,103,6.0,16.0,38,0.00,,,0.00,,2013-06-23 18:53:00,
2013-06-23 15:01:00,70.0,43.0,29.65,SE,124,5.0,13.0,38,0.00,,,0.00,,2013-06-23 19:01:00,
2013-06-23 15:11:00,71.0,43.0,29.65,ESE,112,4.0,14.0,36,0.00,,,0.00,,2013-06-23 19:11:00,
2013-06-23 15:21:00,71.0,42.0,29.65,SE,128,7.0,13.0,35,0.00,,,0.00,,2013-06-23 19:21:00,
2013-06-23 15:32:00,71.0,43.0,29.65,SE,125,6.0,13.0,36,0.00,,,0.00,,2013-06-23 19:32:00,
2013-06-23 15:43:00,71.0,40.0,29.64,ENE,77,9.0,17.0,32,0.00,,,0.00,,2013-06-23 19:43:00,
2013-06-23 15:53:00,71.0,40.0,29.65,ESE,121,4.0,13.0,33,0.00,,,0.00,,2013-06-23 19:53:00,
2013-06-23 16:02:00,72.0,38.0,29.65,SE,129,3.0,13.0,29,0.00,,,0.00,,2013-06-23 20:02:00,
2013-06-23 16:12:00,72.0,39.0,29.65,SE,128,7.0,12.0,30,0.00,,,0.00,,2013-06-23 20:12:00,
2013-06-23 16:24:00,73.0,38.0,29.63,ESE,120,3.0,12.0,28,0.00,,,0.00,,2013-06-23 20:24:00,
2013-06-23 16:33:00,72.0,37.0,29.64,ESE,122,6.0,17.0,28,0.00,,,0.00,,2013-06-23 20:33:00,
2013-06-23 16:42:00,71.0,38.0,29.66,ESE,111,3.0,17.0,30,0.00,,,0.00,,2013-06-23 20:42:00,
2013-06-23 16:53:00,71.0,38.0,29.66,SE,128,8.0,16.0,30,0.00,,,0.00,,2013-06-23 20:53:00,
2013-06-23 17:01:00,68.0,39.0,29.67,ESE,109,7.0,17.0,34,0.00,,,0.00,,2013-06-23 21:01:00,
2013-06-23 17:11:00,71.0,39.0,29.70,SSE,162,5.0,14.0,31,0.00,,,0.00,,2013-06-23 21:11:00,
2013-06-23 17:22:00,70.0,39.0,29.67,ESE,104,3.0,20.0,32,0.00,,,0.00,,2013-06-23 21:22:00,
2013-06-23 17:33:00,71.0,39.0,29.67,ESE,111,5.0,13.0,31,0.00,,,0.00,,2013-06-23 21:33:00,
2013-06-23 17:44:00,70.0,40.0,29.67,East,90,6.0,13.0,33,0.00,,,0.00,,2013-06-23 21:44:00,
2013-06-23 17:52:00,71.0,39.0,29.67,ESE,116,3.0,13.0,31,0.00,,,0.00,,2013-06-23 21:52:00,
2013-06-23 18:01:00,70.0,38.0,29.67,East,93,2.0,10.0,31,0.00,,,0.00,,2013-06-23 22:01:00,
2013-06-23 18:11:00,71.0,38.0,29.67,ESE,121,5.0,12.0,30,0.00,,,0.00,,2013-06-23 22:11:00,
2013-06-23 18:22:00,72.0,36.0,29.64,ESE,122,3.0,13.0,27,0.00,,,0.00,,2013-06-23 22:22:00,
2013-06-23 18:32:00,70.0,35.0,29.66,SE,127,3.0,14.0,28,0.00,,,0.00,,2013-06-23 22:32:00,
2013-06-23 18:43:00,71.0,37.0,29.69,SE,128,6.0,12.0,29,0.00,,,0.00,,2013-06-23 22:43:00,
2013-06-23 18:53:00,70.0,38.0,29.69,ESE,120,3.0,14.0,31,0.00,,,0.00,,2013-06-23 22:53:00,
2013-06-23 19:01:00,69.0,37.0,29.69,ESE,122,4.0,10.0,31,0.00,,,0.00,,2013-06-23 23:01:00,
2013-06-23 19:11:00,71.0,36.0,29.69,SE,128,5.0,10.0,28,0.00,,,0.00,,2013-06-23 23:11:00,
2013-06-23 19:22:00,71.0,39.0,29.66,NNE,25,12.0,18.0,31,0.00,,,0.00,,2013-06-23 23:22:00,
2013-06-23 19:33:00,71.0,37.0,29.66,East,92,2.0,16.0,29,0.00,,,0.00,,2013-06-23 23:33:00,
2013-06-23 19:44:00,70.0,36.0,29.67,ESE,122,2.0,8.0,29,0.00,,,0.00,,2013-06-23 23:44:00,
2013-06-23 19:52:00,70.0,38.0,29.66,NNE,15,7.0,12.0,31,0.00,,,0.00,,2013-06-23 23:52:00,
2013-06-23 20:01:00,70.0,37.0,29.66,NNE,23,6.0,12.0,30,0.00,,,0.00,,2013-06-24 00:01:00,
2013-06-23 20:11:00,70.0,39.0,29.66,NNE,21,5.0,10.0,32,0.00,,,0.00,,2013-06-24 00:11:00,
2013-06-23 20:22:00,70.0,37.0,29.65,East,100,5.0,7.0,30,0.00,,,0.00,,2013-06-24 00:22:00,
2013-06-23 20:33:00,70.0,38.0,29.63,ENE,65,3.0,7.0,31,0.00,,,0.00,,2013-06-24 00:33:00,
2013-06-23 20:42:00,69.0,38.0,29.60,NE,50,4.0,12.0,32,0.00,,,0.00,,2013-06-24 00:42:00,
2013-06-23 20:52:00,68.0,40.0,29.63,East,100,5.0,12.0,36,0.00,,,0.00,,2013-06-24 00:52:00,
2013-06-23 21:01:00,68.0,34.0,29.63,ESE,122,5.0,13.0,28,0.00,,,0.00,,2013-06-24 01:01:00,
2013-06-23 21:11:00,68.0,39.0,29.63,East,101,6.0,13.0,34,0.00,,,0.00,,2013-06-24 01:11:00,
2013-06-23 21:22:00,68.0,34.0,29.62,ENE,57,3.0,13.0,28,0.00,,,0.00,,2013-06-24 01:22:00,
2013-06-23 21:32:00,67.0,35.0,29.59,ESE,106,3.0,12.0,31,0.00,,,0.00,,2013-06-24 01:32:00,
2013-06-23 21:42:00,66.0,38.0,29.55,NE,52,7.0,10.0,36,0.00,,,0.00,,2013-06-24 01:42:00,
2013-06-23 21:53:00,65.0,42.0,29.55,East,97,6.0,13.0,43,0.00,,,0.00,,2013-06-24 01:53:00,
2013-06-23 22:02:00,65.0,42.0,29.56,NE,54,6.0,12.0,43,0.00,,,0.00,,2013-06-24 02:02:00,
2013-06-23 22:11:00,65.0,41.0,29.58,North,2,4.0,10.0,42,0.00,,,0.00,,2013-06-24 02:11:00,
2013-06-23 22:22:00,65.0,43.0,29.58,NNW,336,5.0,8.0,44,0.00,,,0.00,,2013-06-24 02:22:00,
2013-06-23 22:33:00,64.0,42.0,29.57,North,350,3.0,10.0,44,0.00,,,0.00,,2013-06-24 02:33:00,
2013-06-23 22:42:00,64.0,42.0,29.54,ENE,76,2.0,5.0,44,0.00,,,0.00,,2013-06-24 02:42:00,
2013-06-23 22:53:00,64.0,42.0,29.57,NE,39,2.0,5.0,45,0.00,,,0.00,,2013-06-24 02:53:00,
2013-06-23 23:01:00,63.0,42.0,29.56,SE,128,1.0,5.0,46,0.00,,,0.00,,2013-06-24 03:01:00,
2013-06-23 23:11:00,62.0,39.0,29.55,SE,131,1.0,3.0,42,0.00,,,0.00,,2013-06-24 03:11:00,
2013-06-23 23:22:00,63.0,35.0,29.56,West,261,2.0,5.0,35,0.00,,,0.00,,2013-06-24 03:22:00,
2013-06-23 23:33:00,63.0,38.0,29.56,SSW,204,5.0,10.0,39,0.00,,,0.00,,2013-06-24 03:33:00,
2013-06-23 23:43:00,63.0,38.0,29.55,SW,214,2.0,7.0,40,0.00,,,0.00,,2013-06-24 03:43:00,
2013-06-23 23:53:00,63.0,39.0,29.55,SW,214,1.0,3.0,41,0.00,,,0.00,,2013-06-24 03:53:00,